Regional Weather Roundup
Issued by NWS

Home | Current Version | Previous Version | Graphics & Text | Print | Product List | Glossary Off
Versions: 1 2 3 4 5 6 7 8 9 10 11 12 13 14 15 16 17 18 19 20 21 22 23 24 25 26 27 28 29 30 31 32 33 34 35 36 37 38 39 40 41 42 43 44 45 46 47 48 49 50

000
ASUS43 KMKX 041821
RWRWI

WISCONSIN REGIONAL WEATHER ROUNDUP
NATIONAL WEATHER SERVICE MILWAUKEE/SULLIVAN WI
100 PM CDT TUE AUG 04 2015

NOTE: "FAIR" INDICATES FEW OR NO CLOUDS BELOW 12,000 FEET WITH NO
SIGNIFICANT WEATHER AND/OR OBSTRUCTIONS TO VISIBILITY.

WIZ001-002-006>008-014>016-023>028-041900-
NORTHWEST WISCONSIN

CITY           SKY/WX    TMP DP  RH WIND       PRES   REMARKS
SUPERIOR ARPT  MOSUNNY   73  55  53 NW10G16   29.96F
6HR MIN TEMP:  53; 6HR MAX TEMP:  73;

ASHLAND        CLOUDY    71  55  56 N8        29.98S
6HR MIN TEMP:  55; 6HR MAX TEMP:  72;

HAYWARD        MOSUNNY   73  50  44 VRB5      29.98F
6HR MIN TEMP:  50; 6HR MAX TEMP:  73;

SIREN          MOSUNNY   73  51  44 NW10G17   29.98S
6HR MIN TEMP:  53; 6HR MAX TEMP:  74;

CUMBERLAND     SUNNY     72  50  46 NW12      29.99S
RICE LAKE      SUNNY     75  51  43 W6        30.00S
6HR MIN TEMP:  52; 6HR MAX TEMP:  75;

CHETEK         PTSUNNY   75  53  47 W9G16     29.99S
6HR MIN TEMP:  54; 6HR MAX TEMP:  75;

LADYSMITH      PTSUNNY   72  52  49 NW10      30.00S
6HR MIN TEMP:  53; 6HR MAX TEMP:  73;

EAU CLAIRE     PTSUNNY   77  52  41 NW9       29.98F
6HR MIN TEMP:  56; 6HR MAX TEMP:  77;

MENOMONIE      MOSUNNY   76  49  37 W10G18    30.00S
NEW RICHMOND   SUNNY     76  52  43 W10       30.00S
6HR MIN TEMP:  54; 6HR MAX TEMP:  76;

OSCEOLA        SUNNY     76  51  42 W7        30.01S
6HR MIN TEMP:  52; 6HR MAX TEMP:  76;

$$

WIZ003>005-009-010-017-018-041900-
NORTH CENTRAL WISCONSIN

CITY           SKY/WX    TMP DP  RH WIND       PRES   REMARKS
MANITOWISH WTR CLOUDY    66  52  60 NW6       29.98F
6HR MIN TEMP:  55; 6HR MAX TEMP:  66;

ARBOR VITAE    MOSUNNY   69  53  57 NW8G18    29.98F
6HR MIN TEMP:  59; 6HR MAX TEMP:  69;

WOODRUFF       MOSUNNY   69  53  57 NW8G18    29.98F
6HR MIN TEMP:  59; 6HR MAX TEMP:  69;

RHINELANDER    PTSUNNY   72  50  45 NW9G17    29.97F
6HR MIN TEMP:  56; 6HR MAX TEMP:  72;

EAGLE RIVER    PTSUNNY   66  49  53 N15G21    29.98S
6HR MIN TEMP:  56; 6HR MAX TEMP:  67;

LAND O LAKES   CLOUDY    65  51  61 NW9       29.99S
6HR MIN TEMP:  57; 6HR MAX TEMP:  66; 6HR PCP:  0.01;

PHILLIPS       PTSUNNY   68  53  56 NW8       29.97S
6HR MIN TEMP:  53; 6HR MAX TEMP:  70;

TOMAHAWK       PTSUNNY   70  51  52 NW10      29.98S
6HR MIN TEMP:  54; 6HR MAX TEMP:  71;

MEDFORD        CLOUDY    70  52  54 NW10      29.99S
6HR MIN TEMP:  54; 6HR MAX TEMP:  71;

MERRILL        NOT AVBL
$$

WIZ029-030-035-036-043>047-041900-
CENTRAL WISCONSIN

CITY           SKY/WX    TMP DP  RH WIND       PRES   REMARKS
WAUSAU         PTSUNNY   73  49  42 NW12G24   29.96R
6HR MIN TEMP:  58; 6HR MAX TEMP:  75;

MOSINEE        PTSUNNY   73  52  46 NW13G21   29.99S
MARSHFIELD     CLOUDY    72  49  44 NW10      29.99S
6HR MIN TEMP:  58; 6HR MAX TEMP:  74;

STEVENS POINT  PTSUNNY   72  50  47 W12       29.97F
6HR MIN TEMP:  57; 6HR MAX TEMP:  73;

WAUPACA        MOSUNNY   78  50  37 W9        29.96S
6HR MIN TEMP:  60; 6HR MAX TEMP:  78;

WAUTOMA        MOSUNNY   77  50  38 NW14G20   29.98S
6HR MIN TEMP:  60; 6HR MAX TEMP:  78;

WISC RAPIDS    PTSUNNY   75  48  38 NW12      29.99F
6HR MIN TEMP:  60; 6HR MAX TEMP:  78;

CAMP DOUGLAS   PTSUNNY   75  54  46 W15G23    29.99S
$$

WIZ011>013-019>022-031-037>040-048>050-041900-
NORTHEAST WISCONSIN

CITY           SKY/WX    TMP DP  RH WIND       PRES   REMARKS
ANTIGO         MOSUNNY   71  51  50 NW13G18   29.96F
SHAWANO        PTSUNNY   77  51  40 NW13      29.94S
6HR MIN TEMP:  58; 6HR MAX TEMP:  77;

OCONTO         PTSUNNY   74  54  49 N7        29.92S
6HR MIN TEMP:  58; 6HR MAX TEMP:  74;

STURGEON BAY   SUNNY     70  54  56 W13       29.95S
6HR MIN TEMP:  61; 6HR MAX TEMP:  70;

GREEN BAY      PTSUNNY   75  56  51 NW10      29.94S
6HR MIN TEMP:  57; 6HR MAX TEMP:  75;

MANITOWOC      PTSUNNY   74  54  49 MISG      29.94S
6HR MIN TEMP:  63; 6HR MAX TEMP:  75;

APPLETON       NOT AVBL
CLINTONVILLE   CLOUDY    73  46  38 NW15      29.94F
OSHKOSH        MOSUNNY   74  51  44 NW9G18    29.96S
6HR MIN TEMP:  59; 6HR MAX TEMP:  76;

$$

WIZ032>034-041-042-053>061-041900-
SOUTHWEST WISCONSIN

CITY           SKY/WX    TMP DP  RH WIND       PRES   REMARKS
LA CROSSE      MOSUNNY   79  51  37 NW8       30.00S
6HR MIN TEMP:  60; 6HR MAX TEMP:  79;

SPARTA         MOSUNNY   77  47  34 W9G17     30.01S
6HR MIN TEMP:  50; 6HR MAX TEMP:  77;

VIROQUA        MOSUNNY   74  52  47 W9        30.03F
6HR MIN TEMP:  55; 6HR MAX TEMP:  74;

BOSCOBEL       PTSUNNY   82  52  35 NW9       30.01S HX  81
6HR MIN TEMP:  56; 6HR MAX TEMP:  82;

PRAIRIE DU CHI CLOUDY    77  49  37 W7        30.01F
6HR MIN TEMP:  56; 6HR MAX TEMP:  77;

PLATTEVILLE    PTSUNNY   75  54  48 NW7       30.02S
6HR MIN TEMP:  56; 6HR MAX TEMP:  75;

$$

WIZ056-057-062-063-064-067-068-041900-
SOUTH CENTRAL WISCONSIN

CITY           SKY/WX    TMP DP  RH WIND       PRES   REMARKS
REEDSBURG      PTSUNNY   75  51  42 NW13      29.99S
6HR MIN TEMP:  55; 6HR MAX TEMP:  76;

BARABOO/DELLS  MOSUNNY   78  45  31 NW8G16    30.00S
6HR MIN TEMP:  59; 6HR MAX TEMP:  78;

LONE ROCK      PTSUNNY   78  50  37 NW7       30.01S
6HR MIN TEMP:  55; 6HR MAX TEMP:  79;

MINERAL POINT  PTSUNNY   75  50  41 W9        30.02F
MADISON        PTSUNNY   76  51  41 NW14      29.99S
6HR MIN TEMP:  62; 6HR MAX TEMP:  77;

MIDDLETON      MOSUNNY   79  47  32 NW10      30.00S
6HR MIN TEMP:  60; 6HR MAX TEMP:  79;

WATERTOWN      MOSUNNY   76  53  43 NW13      29.98S
6HR MIN TEMP:  56; 6HR MAX TEMP:  76;

MONROE         PTSUNNY   77  52  41 NW10G18   30.00S
JANESVILLE     PTSUNNY   79  52  38 W14       29.98S
$$

WIZ051-052-058>065-066-070>072-041900-
SOUTHEAST WISCONSIN

CITY           SKY/WX    TMP DP  RH WIND       PRES   REMARKS
MILWAUKEE      PTSUNNY   78  52  40 NW16G24   29.96S
6HR MIN TEMP:  65; 6HR MAX TEMP:  79;

WAUKESHA       MOSUNNY   75  48  38 W12G23    29.98F
MILWAUKEE/TIMM MOSUNNY   77  45  31 NW15G26   29.96F
RACINE         MOSUNNY   78  52  40 W13G21    29.97S
6HR MIN TEMP:  63; 6HR MAX TEMP:  78;

BURLINGTON     MOSUNNY   77  51  40 W10G18    29.97S
6HR MIN TEMP:  56; 6HR MAX TEMP:  77;

KENOSHA        MOSUNNY   77  57  50 NW14      29.97R
6HR MIN TEMP:  60; 6HR MAX TEMP:  78;

FOND DU LAC    PTSUNNY   77  53  43 N14G20    29.97S
6HR MIN TEMP:  59; 6HR MAX TEMP:  77;

SHEBOYGAN      MOSUNNY   75  54  47 W14       29.95S
6HR MIN TEMP:  61; 6HR MAX TEMP:  75;

WEST BEND      PTSUNNY   73  48  40 W9G23     29.97S
JUNEAU         MOSUNNY   73  52  47 W10G17    29.99S
6HR MIN TEMP:  54; 6HR MAX TEMP:  73;

$$

LSZ147-162-041900-
LAKE SUPERIOR

STATION/POSITION TIME  TEMP    WIND        PRES    WAVE
                       AIR SEA DIR/SP/G            HT/PER
                 (UTC) (F)     (DEG/KT/KT) (MB)    (FT/S)
W MID LAKE BUOY  1750   57 58  250/  6/  8 1015.2R   1
DEVILS ISLAND    1800   60     260/  3/  5 1015.6F
PORT WING        1740   67     290/  5/  8 1015.2F
SAXON HARBOR     1700   65      30/  4     1015.2
$$

LMZ867-665-643>646-041900-
LAKE MICHIGAN

STATION/POSITION TIME  TEMP    WIND        PRES    WAVE
                       AIR SEA DIR/SP/G            HT/PER
                 (UTC) (F)     (DEG/KT/KT) (MB)    (FT/S)
CHAMBERS ISLAND  1700   67     190/  3/  7 1013.2F
N MID LAKE BUOY  1750   63 70  280/  2/  4 1013.3R   1



USA.gov is the U.S. government's official web portal to all federal, state and local government web resources and services.